User: anonymous   Login
Location: Angwan Shehu
(11.2514°N, 7.4613°E)
Time: 08:25:57
(UTC+00:00)
Language:

A-11 Canister half - Orbit

View from above orbital plane
View from above orbital plane
View from above satellite
View from above satellite

Ground track
Ground track

The orbit data is extracted from the following two-line orbital elements,

1 00051U 60009C   21109.76503503 -.00000089  00000-0 -40135-4 0  9999
2 00051  47.2105 119.7705 0106911 352.4459   7.4717 12.18274254701434
Epoch (UTC): 19 April 2021 18:21:39
Eccentricity: 0.0106911
inclination: 47.2105°
perigee height: 1515 km
apogee height: 1685 km
right ascension of ascending node: 119.7705°
argument of perigee: 352.4459°
revolutions per day: 12.18274254
mean anomaly at epoch: 7.4717°
orbit number at epoch: 70143

The dashed part of the orbit path shows where the satellite is in the earth's shadow,  

DLR